Location: Nairn
(57.5833°N, 3.8667°W)
Time: 15:45:26
(UTC+00:00)

Timation 2 Rocket - Pass Details

Date: 07 August 2020
Orbit: 907 x 1074 km, 70.0° (Epoch: 23 September)

Event Time Altitude Azimuth Distance (km) Brightness Sun altitude
Exits shadow 02:59:28 10° 233° (SW) 2,639 5.6 -9.2°
Maximum altitude 03:05:30 65° 315° (NW) 1,013 4.2 -8.7°
Drops below altitude 10° 03:11:29 10° 38° (NE) 2,608 8.0 -8.2°
Sets 03:14:00 0° 41° (NE) 3,548 9.6 -7.9°
